This demonstration page uses our WeatherBlox Daily Observations layout. Learn more.

39.08367, -84.50855

Hourly Observations for January 29, 2020

Temp ( °F °C ) Dew Point ( °F °C ) Humidity (%) Winds ( mph kmh ) Pressure ( in mb ) Visibility ( mi km ) Precip ( " mm )
12:11 am 00:11 Cloudy 34 1.1 30 -1.1 85 85 Calm 30.17 1022 10 16.0934 0 0
12:48 am 00:48 Cloudy 34 1 30 -1 87 87 Calm 30.16 1021 10 16.0934 0 0
12:53 am 00:53 Cloudy 34 1.1 30 -1.1 85 85 Calm 30.14 1021 10 16.0934 0 0
1:53 am 01:53 Cloudy 34 1.1 29 -1.7 82 82 NE 3 6 30.14 1021 10 16.0934 0 0
2:53 am 02:53 Cloudy 34 1.1 30 -1.1 85 85 Calm 30.14 1021 10 16.0934 0 0
3:53 am 03:53 Cloudy 34 1.1 29 -1.7 82 82 NNE 3 6 30.14 1021 10 16.0934 0 0
4:53 am 04:53 Cloudy 33 0.6 29 -1.7 85 85 NNE 3 6 30.15 1021 10 16.0934 0 0
5:53 am 05:53 Cloudy 34 1.1 28 -2.2 79 79 Calm 30.16 1021 10 16.0934 0 0
6:53 am 06:53 Cloudy 33 0.6 28 -2.2 82 82 NE 6 9 30.17 1022 10 16.0934 0 0
7:53 am 07:53 Cloudy 34 1.1 28 -2.2 79 79 NE 7 11 30.19 1022 10 16.0934 0 0
8:53 am 08:53 Cloudy 34 1.1 27 -2.8 76 76 NE 5 7 30.2 1023 10 16.0934 0 0
9:53 am 09:53 Cloudy 35 1.7 27 -2.8 72 72 NE 5 7 30.21 1023 10 16.0934 0 0
10:53 am 10:53 Cloudy 35 1.7 25 -3.9 67 67 ENE 7 11 30.21 1023 10 16.0934 0 0
11:53 am 11:53 Cloudy 36 2.2 25 -3.9 64 64 E 8 13 30.2 1023 10 16.0934 0 0
12:53 pm 12:53 Cloudy 36 2.2 25 -3.9 64 64 NE 7 11 30.17 1022 10 16.0934 0 0
1:53 pm 13:53 Cloudy 36 2.2 26 -3.3 67 67 ENE 7 11 30.14 1021 10 16.0934 0 0
2:53 pm 14:53 Cloudy 36 2.2 26 -3.3 67 67 NE 6 9 30.14 1021 10 16.0934 0 0
3:53 pm 15:53 Cloudy 36 2.2 26 -3.3 67 67 VRB 5 7 30.15 1021 10 16.0934 0 0
4:53 pm 16:53 Cloudy 36 2.2 26 -3.3 67 67 NE 7 11 30.16 1021 10 16.0934 0 0
5:53 pm 17:53 Cloudy 35 1.7 26 -3.3 70 70 NE 3 6 30.17 1022 10 16.0934 0 0
6:53 pm 18:53 Cloudy 35 1.7 26 -3.3 70 70 NNE 5 7 30.19 1022 10 16.0934 0 0
7:53 pm 19:53 Cloudy 35 1.7 26 -3.3 70 70 NNE 6 9 30.19 1022 10 16.0934 0 0
8:53 pm 20:53 Cloudy 34 1.1 26 -3.3 73 73 NNE 5 7 30.19 1022 10 16.0934 0 0
9:53 pm 21:53 Cloudy 34 1.1 26 -3.3 73 73 NE 5 7 30.19 1023 10 16.0934 0 0
10:53 pm 22:53 Cloudy 34 1.1 26 -3.3 73 73 NNE 3 6 30.19 1023 10 16.0934 0 0
11:09 pm 23:09 Cloudy 34 1.1 26 -3.3 73 73 NE 5 7 30.21 1023 10 16.0934 0 0
11:53 pm 23:53 Cloudy 33 0.6 27 -2.8 78 78 NNE 5 7 30.19 1022 10 16.0934 0 0

Powered by AerisWeather